DW9417 Weather Reports


Display with metric or nautical units.
time (UTC)temp
F
wind
direction
speed
MPH
gust
MPH
rain 1hr
in
rain 24hr
in
rain mn
in
humidity
%
barometer
mb
20260901191550 43 360 0.0 0.0 0.00 0.00 0.00 91 1022.8
20260901184547 43 121 0.0 0.0 0.00 0.00 0.00 91 1023.0
20260901183048 42 92 0.0 0.0 0.00 0.00 0.00 91 1022.9
20260901181550 42 360 0.0 0.0 0.00 0.00 0.00 91 1023.0
20260901180041 42 132 0.0 0.0 0.00 0.00 0.00 91 1023.0
20260901174539 42 133 0.0 0.0 0.00 0.01 0.00 91 1023.0
20260901173052 41 133 0.0 0.0 0.00 0.01 0.00 90 1023.0
20260901171535 41 133 0.0 0.0 0.00 0.01 0.00 90 1023.0
20260901170032 41 133 0.0 0.0 0.00 0.01 0.00 90 1023.1
20260901164530 41 133 0.0 0.0 0.00 0.02 0.00 90 1023.1
20260901163027 41 133 0.0 0.0 0.00 0.02 0.00 90 1023.1
20260901161524 41 133 0.0 0.0 0.00 0.02 0.00 89 1023.1
20260901160022 41 133 0.0 0.0 0.00 0.02 0.00 89 1023.1
20260901154520 41 133 0.0 0.0 0.00 0.02 0.02 89 1023.0
20260901153033 41 133 0.0 0.0 0.00 0.02 0.02 88 1022.9
20260901151517 42 133 0.0 0.0 0.00 0.02 0.02 89 1023.0
20260901150015 42 133 0.0 0.0 0.00 0.02 0.02 88 1023.3
20260901144519 42 133 0.0 0.0 0.00 0.02 0.02 87 1023.4
20260901143011 43 133 0.0 0.0 0.00 0.02 0.02 87 1023.4
20260901141511 43 133 0.0 0.0 0.00 0.02 0.02 86 1023.5
20260901140006 44 133 0.0 0.0 0.00 0.02 0.02 86 1023.6
20260901134506 44 133 0.0 0.0 0.00 0.02 0.02 85 1023.6
20260901133006 45 133 0.0 0.0 0.00 0.02 0.02 85 1023.6
20260901131611 45 132 0.0 0.0 0.00 0.02 0.02 83 1023.6
20260901130057 47 96 0.0 0.0 0.00 0.02 0.02 82 1023.5
20260901124557 48 98 0.0 0.0 0.00 0.02 0.02 81 1023.7
20260901123053 49 94 0.0 0.0 0.00 0.02 0.02 80 1023.7
20260901121608 50 95 0.0 0.0 0.00 0.02 0.02 79 1023.5
20260901120101 52 111 0.0 0.0 0.00 0.02 0.02 79 1023.3
20260901114559 54 93 0.0 0.0 0.00 0.02 0.02 77 1023.2
20260901113051 54 92 0.0 0.0 0.00 0.02 0.02 73 1023.2
20260901111553 54 94 0.0 0.0 0.00 0.02 0.02 77 1023.3
20260901110049 55 94 0.0 0.0 0.00 0.02 0.02 76 1023.2
20260901104549 56 94 0.0 0.0 0.00 0.02 0.02 73 1023.2
20260901103052 56 94 0.0 0.0 0.00 0.02 0.02 72 1023.0
20260901101552 57 128 0.0 0.0 0.00 0.02 0.02 73 1023.0
20260901100047 58 129 0.0 0.0 0.00 0.02 0.02 70 1023.0
20260901094547 58 125 0.0 0.0 0.00 0.02 0.02 63 1022.9
20260901093114 59 132 0.0 0.0 0.00 0.02 0.02 62 1022.9
20260901091600 59 132 0.0 0.0 0.00 0.02 0.02 63 1022.9
20260901090046 59 132 0.0 0.0 0.00 0.02 0.02 60 1022.9
20260901084546 60 132 0.0 0.0 0.00 0.02 0.02 57 1022.8
20260901083048 60 132 0.0 3.0 0.00 0.02 0.02 59 1022.7
20260901081544 60 132 0.0 3.0 0.00 0.02 0.02 55 1022.7
20260901080047 61 133 0.0 2.0 0.00 0.02 0.02 53 1022.7
20260901074545 60 133 1.0 4.0 0.00 0.02 0.02 51 1022.5
20260901073042 60 216 1.0 5.0 0.00 0.02 0.02 51 1022.5
20260901071542 59 117 1.0 6.0 0.00 0.02 0.02 57 1022.6
20260901070049 60 122 5.0 10.0 0.00 0.02 0.02 52 1022.7
20260901064541 61 170 3.0 7.0 0.00 0.02 0.02 53 1022.8
20260901063040 60 229 2.0 10.0 0.00 0.02 0.02 53 1022.8
20260901061537 60 207 1.0 6.0 0.00 0.02 0.02 51 1022.9
20260901060036 60 189 2.0 7.0 0.00 0.02 0.02 52 1023.1
20260901054537 59 201 4.0 8.0 0.00 0.02 0.02 54 1023.1
20260901053037 60 191 0.0 6.0 0.00 0.02 0.02 51 1023.3
20260901051530 59 202 2.0 7.0 0.00 0.02 0.02 56 1023.4
20260901050030 58 242 3.0 9.0 0.00 0.02 0.02 56 1023.6
20260901044529 59 230 6.0 11.0 0.00 0.02 0.02 55 1023.7
20260901043030 58 208 3.0 8.0 0.00 0.02 0.02 58 1023.9
20260901041527 57 240 3.0 10.0 0.00 0.02 0.02 60 1024.0
20260901040029 58 200 2.0 8.0 0.00 0.02 0.02 57 1024.1
20260901034527 59 219 3.0 10.0 0.00 0.02 0.02 57 1024.2
20260901033042 59 215 2.0 6.0 0.00 0.02 0.02 58 1024.5
20260901031527 59 159 3.0 5.0 0.00 0.02 0.02 54 1024.6
20260901030026 58 221 2.0 9.0 0.00 0.02 0.02 57 1024.6
20260901024525 58 188 2.0 5.0 0.00 0.02 0.02 56 1024.7
20260901023018 58 223 3.0 8.0 0.00 0.02 0.02 59 1024.8
20260901021519 57 223 4.0 8.0 0.00 0.02 0.02 60 1024.8
20260901020013 57 116 4.0 9.0 0.00 0.02 0.02 61 1024.8
20260901014510 56 117 1.0 8.0 0.00 0.02 0.02 68 1025.0
20260901013008 55 136 3.0 9.0 0.00 0.02 0.02 75 1025.2
20260901011503 54 129 3.0 9.0 0.00 0.02 0.02 78 1025.3
20260901010001 53 114 3.0 9.0 0.00 0.02 0.02 82 1025.3
20260901004600 52 130 1.0 4.0 0.00 0.02 0.02 86 1025.3
20260901003101 51 202 1.0 4.0 0.00 0.02 0.02 88 1025.3
20260901001558 50 135 1.0 6.0 0.00 0.02 0.02 90 1025.4
20260901000053 49 164 1.0 5.0 0.00 0.02 0.02 92 1025.3
20260831234551 49 163 0.0 5.0 0.00 0.02 0.02 92 1025.1
20260831233047 48 163 0.0 0.0 0.00 0.02 0.02 91 1024.9
20260831231542 48 163 2.0 4.0 0.00 0.02 0.02 91 1025.0
20260831230040 49 163 0.0 2.0 0.00 0.02 0.02 92 1024.8
20260831224539 49 163 0.0 0.0 0.00 0.02 0.02 91 1024.7
20260831223041 49 163 0.0 1.0 0.00 0.02 0.02 92 1024.5
20260831221539 49 163 1.0 2.0 0.00 0.02 0.02 92 1024.3
20260831220033 49 163 1.0 3.0 0.00 0.02 0.02 91 1024.2
20260831214540 49 163 3.0 5.0 0.00 0.02 0.02 92 1024.0
20260831213038 50 163 2.0 5.0 0.00 0.02 0.02 92 1023.8
20260831211524 50 163 0.0 3.0 0.00 0.02 0.02 92 1023.6
20260831210023 50 163 1.0 3.0 0.00 0.02 0.02 92 1023.5
20260831204519 50 163 0.0 0.0 0.00 0.02 0.02 92 1023.2
20260831203023 49 163 0.0 0.0 0.00 0.02 0.02 92 1023.0
20260831201518 49 163 0.0 0.0 0.00 0.02 0.02 91 1022.8
20260831200015 49 163 0.0 0.0 0.00 0.02 0.02 91 1022.6
20260831194513 49 163 0.0 0.0 0.00 0.02 0.02 91 1022.4
20260831193013 49 163 0.0 1.0 0.00 0.02 0.02 91 1022.4